OK1HOL-14 Weather Reports


time (UTC)temp
C
wind
direction
speed
KPH
gust
KPH
rain 1hr
cm
rain 24hr
cm
rain mn
cm
humidity
%
barometer
mb
20260903114601 21 0.0 0.0 0.00 0.00 0.00 49 1018.2
20260903113608 21 0.0 0.0 0.00 0.00 0.00 48 1018.2
20260903112600 21 0.0 0.0 0.00 0.00 0.00 48 1018.3
20260903111601 22 0.0 0.0 0.00 0.00 0.00 47 1018.4
20260903110608 22 0.0 0.0 0.00 0.00 0.00 47 1018.4
20260903105600 22 0.0 0.0 0.00 0.00 0.00 46 1018.6
20260903104601 22 0.0 0.0 0.00 0.00 0.00 47 1018.7
20260903103608 21 0.0 0.0 0.00 0.00 0.00 48 1018.8
20260903102600 22 0.0 0.0 0.00 0.00 0.00 47 1019.0
20260903101600 21 0.0 0.0 0.00 0.00 0.00 47 1019.0
20260903100608 21 0.0 0.0 0.00 0.00 0.00 47 1018.9
20260903095600 21 0.0 0.0 0.00 0.00 0.00 49 1019.1
20260903094600 21 0.0 0.0 0.00 0.00 0.00 50 1019.2
20260903093608 21 0.0 0.0 0.00 0.00 0.00 52 1019.3
20260903092600 20 0.0 0.0 0.00 0.00 0.00 54 1019.2
20260903091600 20 0.0 0.0 0.00 0.00 0.00 54 1019.3
20260903090608 20 0.0 0.0 0.00 0.00 0.00 54 1019.2
20260903085600 20 0.0 0.0 0.00 0.00 0.00 53 1019.2
20260903084600 20 0.0 0.0 0.00 0.00 0.00 55 1019.1
20260903083608 19 0.0 0.0 0.00 0.00 0.00 56 1019.2
20260903082600 19 0.0 0.0 0.00 0.00 0.00 56 1019.4
20260903081600 18 0.0 0.0 0.00 0.00 0.00 59 1019.3
20260903080608 18 0.0 0.0 0.00 0.00 0.00 61 1019.3
20260903075600 18 0.0 0.0 0.00 0.00 0.00 62 1019.4
20260903074600 18 0.0 0.0 0.00 0.00 0.00 65 1019.4
20260903073608 17 0.0 0.0 0.00 0.00 0.00 68 1019.5
20260903072600 17 0.0 0.0 0.00 0.00 0.00 71 1019.5
20260903071600 17 0.0 0.0 0.00 0.00 0.00 77 1019.5
20260903070608 17 0.0 0.0 0.00 0.00 0.00 75 1019.4
20260903065600 16 0.0 0.0 0.00 0.00 0.00 77 1019.5
20260903064600 16 0.0 0.0 0.00 0.00 0.00 77 1019.5
20260903063608 16 0.0 0.0 0.00 0.00 0.00 79 1019.5
20260903062600 16 0.0 0.0 0.00 0.00 0.00 79 1019.4
20260903061600 15 0.0 0.0 0.00 0.00 0.00 81 1019.3
20260903060608 15 0.0 0.0 0.00 0.00 0.00 84 1019.2
20260903055600 15 0.0 0.0 0.00 0.00 0.00 85 1019.2
20260903054559 15 0.0 0.0 0.00 0.00 0.00 86 1019.2
20260903053607 15 0.0 0.0 0.00 0.00 0.00 85 1019.1
20260903052559 14 0.0 0.0 0.00 0.00 0.00 85 1019.1
20260903051559 14 0.0 0.0 0.00 0.00 0.00 86 1019.1
20260903050607 14 0.0 0.0 0.00 0.00 0.00 86 1019.0
20260903045559 14 0.0 0.0 0.00 0.00 0.00 86 1018.9
20260903044559 14 0.0 0.0 0.00 0.00 0.00 86 1019.1
20260903043607 14 0.0 0.0 0.00 0.00 0.00 85 1019.0
20260903042559 14 0.0 0.0 0.00 0.00 0.00 85 1018.9
20260903041600 14 0.0 0.0 0.00 0.00 0.00 85 1018.9
20260903040607 14 0.0 0.0 0.00 0.00 0.00 84 1018.8
20260903035559 15 0.0 0.0 0.00 0.00 0.00 82 1018.8
20260903034559 15 0.0 0.0 0.00 0.00 0.00 82 1018.7
20260903033607 15 0.0 0.0 0.00 0.00 0.00 81 1018.8
20260903032559 15 0.0 0.0 0.00 0.00 0.00 82 1018.8
20260903031559 15 0.0 0.0 0.00 0.00 0.00 81 1018.9
20260903030608 15 0.0 0.0 0.00 0.00 0.00 81 1018.9
20260903025559 15 0.0 0.0 0.00 0.00 0.00 81 1018.9
20260903024559 15 0.0 0.0 0.00 0.00 0.00 80 1018.9
20260903023607 15 0.0 0.0 0.00 0.00 0.00 80 1018.8
20260903022559 15 0.0 0.0 0.00 0.00 0.00 80 1018.8
20260903021559 15 0.0 0.0 0.00 0.00 0.00 80 1018.7
20260903020623 15 0.0 0.0 0.00 0.00 0.00 81 1018.7
20260903015557 15 0.0 0.0 0.00 0.00 0.00 81 1018.7
20260903014605 15 0.0 0.0 0.00 0.00 0.00 80 1018.6
20260903013557 15 0.0 0.0 0.00 0.00 0.00 80 1018.7
20260903012557 15 0.0 0.0 0.00 0.00 0.00 80 1018.8
20260903011605 15 0.0 0.0 0.00 0.00 0.00 81 1018.7
20260903010557 15 0.0 0.0 0.00 0.00 0.00 80 1018.7
20260903005557 15 0.0 0.0 0.00 0.00 0.00 80 1018.8
20260903004605 15 0.0 0.0 0.00 0.00 0.00 80 1018.8
20260903003557 15 0.0 0.0 0.00 0.00 0.00 79 1018.8
20260903002557 15 0.0 0.0 0.00 0.00 0.00 79 1018.8
20260903001605 15 0.0 0.0 0.00 0.00 0.00 79 1018.8
20260903000557 15 0.0 0.0 0.00 0.00 0.00 79 1018.8
20260902235557 15 0.0 0.0 0.00 0.00 0.00 78 1018.8
20260902234605 15 0.0 0.0 0.00 0.00 0.00 78 1018.8
20260902233557 15 0.0 0.0 0.00 0.00 0.00 78 1018.8
20260902232557 15 0.0 0.0 0.00 0.00 0.00 77 1018.8
20260902231605 16 0.0 0.0 0.00 0.00 0.00 76 1018.8
20260902230557 16 0.0 0.0 0.00 0.00 0.00 75 1018.8
20260902225557 16 0.0 0.0 0.00 0.00 0.00 75 1018.9
20260902224605 16 0.0 0.0 0.00 0.00 0.00 74 1018.8
20260902223557 16 0.0 0.0 0.00 0.00 0.00 73 1018.9
20260902222557 16 0.0 0.0 0.00 0.00 0.00 73 1018.9
20260902221605 17 0.0 0.0 0.00 0.00 0.00 72 1018.9
20260902220557 17 0.0 0.0 0.00 0.00 0.00 72 1018.9
20260902215557 17 0.0 0.0 0.00 0.00 0.00 72 1018.9
20260902214605 17 0.0 0.0 0.00 0.00 0.00 72 1018.8
20260902213557 17 0.0 0.0 0.00 0.00 0.00 71 1018.8
20260902212557 17 0.0 0.0 0.00 0.00 0.00 71 1018.8
20260902211604 17 0.0 0.0 0.00 0.00 0.00 70 1018.8
20260902210556 17 0.0 0.0 0.00 0.00 0.00 70 1018.8
20260902205556 17 0.0 0.0 0.00 0.00 0.00 70 1018.8
20260902204604 17 0.0 0.0 0.00 0.00 0.00 69 1018.7
20260902203556 18 0.0 0.0 0.00 0.00 0.00 69 1018.8
20260902202556 18 0.0 0.0 0.00 0.00 0.00 68 1018.7
20260902201604 18 0.0 0.0 0.00 0.00 0.00 68 1018.6
20260902200556 18 0.0 0.0 0.00 0.00 0.00 67 1018.5
20260902195556 18 0.0 0.0 0.00 0.00 0.00 67 1018.6
20260902194604 18 0.0 0.0 0.00 0.00 0.00 66 1018.5
20260902193556 18 0.0 0.0 0.00 0.00 0.00 65 1018.6
20260902192556 19 0.0 0.0 0.00 0.00 0.00 64 1018.6
20260902191604 19 0.0 0.0 0.00 0.00 0.00 63 1018.5
20260902190556 19 0.0 0.0 0.00 0.00 0.00 63 1018.5
20260902185556 20 0.0 0.0 0.00 0.00 0.00 61 1018.5
20260902184604 20 0.0 0.0 0.00 0.00 0.00 59 1018.5
20260902183556 20 0.0 0.0 0.00 0.00 0.00 57 1018.3
20260902182556 21 0.0 0.0 0.00 0.00 0.00 56 1018.3
20260902181604 21 0.0 0.0 0.00 0.00 0.00 52 1018.2
20260902180556 21 0.0 0.0 0.00 0.00 0.00 51 1017.9
20260902175556 21 0.0 0.0 0.00 0.00 0.00 51 1017.8
20260902174604 21 0.0 0.0 0.00 0.00 0.00 50 1017.7
20260902173556 22 0.0 0.0 0.00 0.00 0.00 49 1017.7
20260902172556 22 0.0 0.0 0.00 0.00 0.00 49 1017.7
20260902171604 22 0.0 0.0 0.00 0.00 0.00 48 1017.7
20260902170556 22 0.0 0.0 0.00 0.00 0.00 46 1017.6
20260902165556 23 0.0 0.0 0.00 0.00 0.00 45 1017.6
20260902164604 23 0.0 0.0 0.00 0.00 0.00 44 1017.6
20260902163556 23 0.0 0.0 0.00 0.00 0.00 44 1017.6
20260902162556 23 0.0 0.0 0.00 0.00 0.00 44 1017.6
20260902161604 23 0.0 0.0 0.00 0.00 0.00 43 1017.6
20260902160556 23 0.0 0.0 0.00 0.00 0.00 43 1017.6
20260902155555 24 0.0 0.0 0.00 0.00 0.00 42 1017.6
20260902154603 25 0.0 0.0 0.00 0.00 0.00 42 1017.6
20260902153555 25 0.0 0.0 0.00 0.00 0.00 41 1017.6
20260902152555 25 0.0 0.0 0.00 0.00 0.00 42 1017.7
20260902151603 25 0.0 0.0 0.00 0.00 0.00 43 1017.8
20260902150555 24 0.0 0.0 0.00 0.00 0.00 44 1018.0
20260902145555 25 0.0 0.0 0.00 0.00 0.00 44 1018.0
20260902144603 25 0.0 0.0 0.00 0.00 0.00 42 1018.1
20260902143555 25 0.0 0.0 0.00 0.00 0.00 42 1018.2
20260902142555 25 0.0 0.0 0.00 0.00 0.00 43 1018.2
20260902141603 24 0.0 0.0 0.00 0.00 0.00 42 1018.3
20260902140619 25 0.0 0.0 0.00 0.00 0.00 42 1018.4
20260902135554 25 0.0 0.0 0.00 0.00 0.00 43 1018.4
20260902134554 24 0.0 0.0 0.00 0.00 0.00 44 1018.5
20260902133602 24 0.0 0.0 0.00 0.00 0.00 46 1018.5
20260902132554 23 0.0 0.0 0.00 0.00 0.00 47 1018.7
20260902131554 23 0.0 0.0 0.00 0.00 0.00 46 1018.7
20260902130601 23 0.0 0.0 0.00 0.00 0.00 47 1018.8
20260902125553 23 0.0 0.0 0.00 0.00 0.00 48 1019.0
20260902124553 23 0.0 0.0 0.00 0.00 0.00 48 1019.1
20260902123601 23 0.0 0.0 0.00 0.00 0.00 47 1019.1
20260902122554 23 0.0 0.0 0.00 0.00 0.00 47 1019.3
20260902121553 23 0.0 0.0 0.00 0.00 0.00 47 1019.3
20260902120601 23 0.0 0.0 0.00 0.00 0.00 49 1019.3
20260902115553 22 0.0 0.0 0.00 0.00 0.00 51 1019.4